User: anonymous   Login
Location: Unspecified
(0.0000°N, 0.0000°E)
Time: 16:07:33
(UTC+02:00)
Language:

Cosmos 1538 Rocket - Orbit

View from above orbital plane
View from above orbital plane
View from above satellite
View from above satellite

Ground track
Ground track

The orbit data is extracted from the following two-line orbital elements,

1 14760U 84019B   16181.13022939 -.00000003  00000-0  80484-5 0  9999
2 14760  74.0440  49.4939 0027934 354.1239 119.3724 14.35782955692912
Epoch (UTC): 29 June 2016 03:07:31
Eccentricity: 0.0027934
inclination: 74.0440°
perigee height: 752 km
apogee height: 792 km
right ascension of ascending node: 49.4939°
argument of perigee: 354.1239°
revolutions per day: 14.35782955
mean anomaly at epoch: 119.3724°
orbit number at epoch: 69291

The dashed part of the orbit path shows where the satellite is in the earth's shadow,  

DLR